EW8655 Weather Reports


Display with metric or nautical units.
time (UTC)temp
F
wind
direction
speed
MPH
gust
MPH
rain 1hr
in
rain 24hr
in
rain mn
in
humidity
%
barometer
mb
20260507002507 44 279 6.0 7.0 0.00 0.00 0.00 97 1012.1
20260507002007 44 305 5.0 9.0 0.00 0.00 0.00 97 1012.1
20260507001506 43 292 5.0 9.0 0.00 0.00 0.00 97 1012.0
20260507000507 43 305 4.0 7.0 0.00 0.00 0.00 97 1011.2
20260507000006 43 302 5.0 7.0 0.00 0.00 0.00 97 1011.1
20260506235507 43 303 4.0 7.0 0.00 0.00 0.00 97 1011.1
20260506235007 43 281 5.0 9.0 0.00 0.00 0.00 97 1011.1
20260506234507 43 288 5.0 14.0 0.00 0.00 0.00 97 1011.1
20260506234007 43 303 5.0 14.0 0.00 0.00 0.00 96 1010.1
20260506233506 44 307 5.0 9.0 0.00 0.00 0.00 96 1011.1
20260506233007 44 331 5.0 9.0 0.00 0.00 0.00 96 1010.1
20260506232506 45 287 2.0 7.0 0.00 0.00 0.00 97 1010.6
20260506232007 45 323 1.0 5.0 0.00 0.00 0.00 97 1010.1
20260506231507 45 352 2.0 5.0 0.00 0.00 0.00 97 1010.1
20260506230507 45 20 5.0 5.0 0.00 0.00 0.00 97 1010.1
20260506230007 45 14 2.0 5.0 0.00 0.00 0.00 97 1010.1
20260506225007 46 52 5.0 5.0 0.00 0.00 0.00 97 1010.1
20260506224506 46 46 2.0 5.0 0.00 0.00 0.00 97 1009.1
20260506224007 46 70 2.0 5.0 0.00 0.00 0.00 97 1009.1
20260506223506 46 84 2.0 5.0 0.00 0.00 0.00 97 1010.1
20260506222507 47 90 2.0 5.0 0.00 0.00 0.00 98 1009.1
20260506221506 47 125 2.0 5.0 0.00 0.00 0.00 99 1009.1
20260506221007 46 121 2.0 5.0 0.00 0.00 0.00 99 1009.1
20260506220506 46 115 0.0 5.0 0.00 0.00 0.00 99 1009.1
20260506215507 46 121 2.0 5.0 0.00 0.00 0.00 100 1009.1
20260506215007 46 121 2.0 7.0 0.00 0.00 0.00 100 1009.1
20260506214507 46 127 3.0 7.0 0.00 0.00 0.00 100 1009.1
20260506214007 46 118 5.0 7.0 0.00 0.00 0.00 100 1009.1
20260506213507 46 112 5.0 7.0 0.00 0.00 0.00 100 1009.1
20260506213006 46 103 5.0 7.0 0.00 0.00 0.00 100 1009.1
20260506212506 46 101 6.0 9.0 0.00 0.00 0.00 100 1009.1
20260506212007 45 96 7.0 9.0 0.00 0.00 0.00 100 1009.1
20260506211507 46 94 6.0 9.0 0.00 0.00 0.00 100 1009.1
20260506211007 45 101 7.0 9.0 0.00 0.00 0.00 100 1009.1
20260506210507 46 101 7.0 9.0 0.00 0.00 0.00 100 1009.1
20260506210006 46 101 7.0 9.0 0.00 0.00 0.00 100 1009.1
20260506205506 46 92 5.0 9.0 0.00 0.00 0.00 100 1009.1
20260506205008 46 92 5.0 9.0 0.00 0.00 0.00 100 1009.1
20260506204506 46 69 5.0 9.0 0.00 0.00 0.00 100 1009.1
20260506204007 46 86 5.0 7.0 0.00 0.00 0.00 100 1009.1
20260506203506 46 103 5.0 7.0 0.00 0.00 0.00 100 1009.1
20260506203007 46 87 5.0 7.0 0.00 0.00 0.00 100 1009.1
20260506202507 47 91 2.0 7.0 0.00 0.00 0.00 100 1009.1
20260506202007 47 117 5.0 7.0 0.00 0.00 0.00 100 1009.1
20260506201506 47 100 2.0 5.0 0.00 0.00 0.00 100 1009.1
20260506201007 47 106 2.0 7.0 0.00 0.00 0.00 100 1009.1
20260506200507 47 124 2.0 7.0 0.00 0.00 0.00 100 1009.1
20260506200006 47 105 5.0 7.0 0.00 0.00 0.00 100 1009.1
20260506195506 46 110 5.0 7.0 0.00 0.00 0.00 100 1009.1
20260506195007 46 102 5.0 7.0 0.00 0.00 0.00 100 1009.1
20260506194506 46 82 5.0 7.0 0.00 0.00 0.00 100 1009.1
20260506194006 46 84 5.0 5.0 0.00 0.00 0.00 100 1009.1
20260506193506 45 90 5.0 5.0 0.00 0.00 0.00 100 1009.1
20260506193007 45 89 5.0 5.0 0.00 0.00 0.00 100 1009.1
20260506192506 45 81 2.0 5.0 0.00 0.00 0.00 100 1009.1
20260506192006 45 78 2.0 5.0 0.00 0.00 0.00 100 1009.1
20260506191506 45 102 2.0 5.0 0.00 0.00 0.00 100 1009.1
20260506191006 46 92 2.0 5.0 0.00 0.00 0.00 100 1009.1
20260506190507 46 81 3.0 5.0 0.00 0.00 0.00 100 1009.1
20260506185506 46 69 2.0 5.0 0.00 0.00 0.00 100 1009.1
20260506185006 46 66 2.0 5.0 0.00 0.00 0.00 100 1009.1
20260506184505 46 78 2.0 5.0 0.00 0.00 0.00 100 1009.1
20260506184007 45 51 2.0 5.0 0.00 0.00 0.00 100 1009.1
20260506183006 45 63 2.0 5.0 0.00 0.00 0.00 100 1009.1
20260506182506 45 43 2.0 5.0 0.00 0.00 0.00 100 1009.1
20260506181506 45 29 0.0 0.0 0.00 0.00 0.00 100 1010.1
20260506181006 45 63 0.0 0.0 0.00 0.00 0.00 100 1010.1
20260506180507 45 42 0.0 2.0 0.00 0.00 0.00 100 1010.1
20260506180007 44 22 0.0 5.0 0.00 0.00 0.00 100 1010.1
20260506175506 44 13 1.0 5.0 0.00 0.00 0.00 100 1010.1
20260506175007 44 28 2.0 5.0 0.00 0.00 0.00 100 1010.1
20260506174007 44 31 2.0 5.0 0.00 0.00 0.00 100 1010.1
20260506173507 44 38 2.0 5.0 0.00 0.00 0.00 100 1009.1
20260506173006 44 28 5.0 7.0 0.00 0.00 0.00 100 1009.1
20260506172506 44 9 5.0 7.0 0.00 0.00 0.00 100 1009.1
20260506172006 44 26 5.0 7.0 0.00 0.00 0.00 100 1009.1
20260506171505 44 22 5.0 5.0 0.00 0.00 0.00 100 1009.1
20260506171006 44 32 5.0 5.0 0.00 0.00 0.00 100 1009.1
20260506170507 44 36 5.0 5.0 0.00 0.00 0.00 100 1009.1
20260506170005 44 28 5.0 5.0 0.00 0.00 0.00 100 1009.1
20260506165506 44 43 5.0 5.0 0.00 0.00 0.00 100 1009.1
20260506165007 44 36 5.0 5.0 0.00 0.00 0.00 100 1009.1
20260506164505 44 37 5.0 5.0 0.00 0.00 0.00 100 1009.1
20260506164006 44 40 5.0 5.0 0.00 0.00 0.00 100 1009.1
20260506163006 44 48 5.0 7.0 0.00 0.00 0.00 100 1009.1
20260506162506 44 51 5.0 5.0 0.00 0.00 0.00 100 1009.1
20260506162006 44 47 5.0 5.0 0.00 0.00 0.00 100 1009.1
20260506161505 44 51 5.0 5.0 0.00 0.00 0.00 100 1009.1
20260506161006 44 53 5.0 7.0 0.00 0.00 0.00 100 1009.1
20260506160506 43 59 5.0 7.0 0.00 0.00 0.00 100 1009.1
20260506160006 43 55 5.0 7.0 0.00 0.00 0.00 100 1009.1
20260506155506 43 48 5.0 7.0 0.00 0.00 0.00 100 1009.1
20260506155006 43 49 5.0 7.0 0.00 0.00 0.00 100 1009.1
20260506154506 43 48 5.0 7.0 0.00 0.00 0.00 100 1009.1
20260506154006 43 49 5.0 7.0 0.00 0.00 0.00 100 1009.1
20260506153506 43 58 5.0 7.0 0.00 0.00 0.00 100 1009.1
20260506153006 43 50 7.0 7.0 0.00 0.00 0.00 100 1009.1
20260506152506 43 53 7.0 7.0 0.00 0.00 0.00 100 1009.1
20260506152006 43 60 7.0 7.0 0.00 0.00 0.00 100 1009.1
20260506151006 43 55 5.0 7.0 0.00 0.00 0.00 100 1009.1
20260506150506 43 57 7.0 7.0 0.00 0.00 0.00 100 1009.1
20260506145505 43 50 7.0 7.0 0.00 0.00 0.00 100 1009.1
20260506145006 43 53 7.0 7.0 0.00 0.00 0.00 100 1009.1
20260506144006 43 57 7.0 7.0 0.00 0.00 0.00 100 1009.1
20260506143006 43 52 7.0 7.0 0.00 0.00 0.00 100 1009.1
20260506142506 43 58 7.0 9.0 0.00 0.00 0.00 100 1009.1
20260506142006 43 60 7.0 12.0 0.00 0.00 0.00 100 1009.1
20260506141505 43 60 8.0 12.0 0.00 0.00 0.00 100 1009.1
20260506141006 43 71 9.0 12.0 0.00 0.00 0.00 100 1009.1
20260506140506 43 93 9.0 12.0 0.00 0.00 0.00 100 1009.0
20260506140005 43 84 9.0 12.0 0.00 0.00 0.00 100 1008.6
20260506135505 43 111 7.0 12.0 0.00 0.00 0.00 100 1009.1
20260506134505 43 89 7.0 14.0 0.00 0.00 0.00 100 1009.1
20260506133506 43 94 9.0 12.0 0.00 0.00 0.00 100 1008.1
20260506133006 43 96 9.0 12.0 0.00 0.00 0.00 100 1009.1
20260506132506 43 103 9.0 12.0 0.00 0.00 0.00 100 1008.1
20260506132006 43 98 7.0 12.0 0.00 0.00 0.00 100 1008.1
20260506131506 43 106 8.0 12.0 0.00 0.00 0.00 100 1008.1
20260506131006 44 100 7.0 9.0 0.00 0.00 0.00 100 1008.1
20260506130506 44 117 7.0 9.0 0.00 0.00 0.00 100 1008.1
20260506130006 44 97 5.0 12.0 0.00 0.00 0.00 100 1008.1
20260506125505 43 114 5.0 12.0 0.00 0.00 0.00 100 1008.1
20260506125006 44 107 7.0 12.0 0.00 0.00 0.00 100 1008.1
20260506124006 44 130 7.0 12.0 0.00 0.00 0.00 100 1008.1
20260506122505 43 88 9.0 14.0 0.00 0.00 0.00 100 1008.1
20260506122007 44 95 9.0 14.0 0.00 0.00 0.00 100 1008.1
20260506121506 44 99 9.0 12.0 0.00 0.00 0.00 100 1008.1
20260506121007 43 84 7.0 12.0 0.00 0.00 0.00 100 1008.1
20260506120506 43 86 9.0 14.0 0.00 0.00 0.00 100 1008.1
20260506120006 43 98 7.0 14.0 0.00 0.00 0.00 100 1008.1
20260506115506 43 78 9.0 12.0 0.00 0.00 0.00 100 1008.1
20260506115006 43 104 9.0 12.0 0.00 0.00 0.00 100 1008.1
20260506114006 43 85 9.0 12.0 0.00 0.00 0.00 100 1008.1
20260506113506 43 91 7.0 12.0 0.00 0.00 0.00 100 1008.1
20260506113006 43 85 9.0 12.0 0.00 0.00 0.00 100 1008.1
20260506112506 43 95 8.0 14.0 0.00 0.00 0.00 100 1008.1
20260506112006 44 113 9.0 14.0 0.00 0.00 0.00 100 1008.1
20260506110506 44 84 7.0 12.0 0.00 0.00 0.00 100 1008.1
20260506110006 44 128 7.0 12.0 0.00 0.00 0.00 100 1008.1
20260506105506 44 85 9.0 12.0 0.00 0.00 0.00 100 1008.1
20260506104507 44 88 9.0 14.0 0.00 0.00 0.00 100 1008.1
20260506104008 44 90 9.0 14.0 0.00 0.00 0.00 100 1008.1
20260506103508 44 99 9.0 14.0 0.00 0.00 0.00 100 1008.1
20260506102507 43 100 9.0 14.0 0.00 0.00 0.00 100 1008.1
20260506102008 43 82 9.0 14.0 0.00 0.00 0.00 100 1008.1
20260506101507 43 100 9.0 14.0 0.00 0.00 0.00 100 1008.1
20260506100509 43 92 11.0 14.0 0.00 0.00 0.00 100 1008.1
20260506095008 44 82 9.0 14.0 0.00 0.00 0.00 100 1008.1
20260506094508 43 73 9.0 14.0 0.00 0.00 0.00 100 1008.6
20260506094008 44 80 9.0 14.0 0.00 0.00 0.00 100 1008.1
20260506093008 44 84 9.0 14.0 0.00 0.00 0.00 100 1008.1
20260506092507 44 87 11.0 14.0 0.00 0.00 0.00 100 1008.1
20260506092009 44 70 10.0 18.0 0.00 0.00 0.00 100 1008.1
20260506091507 44 79 12.0 18.0 0.00 0.00 0.00 100 1008.1
20260506091008 44 88 9.0 16.0 0.00 0.00 0.00 100 1008.1
20260506090508 44 65 12.0 16.0 0.00 0.00 0.00 100 1008.1
20260506085507 44 79 12.0 16.0 0.00 0.00 0.00 100 1008.1
20260506085008 44 87 12.0 16.0 0.00 0.00 0.00 100 1008.1
20260506084507 44 89 12.0 16.0 0.00 0.00 0.00 100 1008.1
20260506084008 44 93 12.0 16.0 0.00 0.00 0.00 100 1008.1
20260506083508 44 82 10.0 14.0 0.00 0.00 0.00 100 1008.1
20260506082507 44 83 9.0 14.0 0.00 0.00 0.00 100 1008.1
20260506082009 45 61 9.0 14.0 0.00 0.00 0.00 100 1008.1
20260506081508 45 84 9.0 14.0 0.00 0.00 0.00 100 1008.1
20260506081008 45 88 9.0 14.0 0.00 0.00 0.00 100 1008.1
20260506080507 45 84 12.0 16.0 0.00 0.00 0.00 100 1008.1
20260506073508 45 96 9.0 14.0 0.00 0.00 0.00 100 1008.1
20260506073008 45 90 9.0 14.0 0.00 0.00 0.00 100 1008.1
20260506072507 45 88 12.0 14.0 0.00 0.00 0.00 100 1008.1
20260506072007 45 78 12.0 14.0 0.00 0.00 0.00 100 1008.1
20260506071506 45 90 11.0 14.0 0.00 0.00 0.00 100 1008.1
20260506070508 45 106 8.0 16.0 0.00 0.00 0.00 100 1008.1
20260506062506 45 94 9.0 12.0 0.00 0.00 0.00 100 1008.1
20260506062008 45 67 7.0 12.0 0.00 0.00 0.00 100 1009.1
20260506061507 45 87 7.0 14.0 0.00 0.00 0.00 100 1009.1
20260506061007 45 78 9.0 14.0 0.00 0.00 0.00 100 1008.9
20260506060507 45 70 9.0 14.0 0.00 0.00 0.00 100 1008.1
20260506051007 46 119 5.0 9.0 0.00 0.00 0.00 100 1009.1
20260506050507 46 112 7.0 9.0 0.00 0.00 0.00 100 1009.1
20260506045007 46 90 9.0 12.0 0.00 0.00 0.00 100 1009.1
20260506044507 46 92 7.0 12.0 0.00 0.00 0.00 100 1008.1
20260506044007 46 84 6.0 12.0 0.00 0.00 0.00 100 1008.1
20260506043507 46 70 6.0 9.0 0.00 0.00 0.00 100 1008.1
20260506043007 47 97 7.0 9.0 0.00 0.00 0.00 100 1008.1
20260506042508 47 68 7.0 12.0 0.00 0.00 0.00 100 1008.1
20260506042008 47 85 7.0 12.0 0.00 0.00 0.00 100 1008.1
20260506041507 47 86 7.0 9.0 0.00 0.00 0.00 100 1008.1
20260506040507 47 92 7.0 9.0 0.00 0.00 0.00 100 1008.1
20260506040007 47 84 7.0 9.0 0.00 0.00 0.00 99 1008.1
20260506035506 47 104 7.0 9.0 0.00 0.00 0.00 99 1008.1
20260506035007 47 92 5.0 7.0 0.00 0.00 0.00 99 1008.1
20260506034507 47 92 0.0 2.0 0.00 0.00 0.00 99 1009.1
20260506034007 47 108 0.0 5.0 0.00 0.00 0.00 99 1008.7
20260506032506 47 90 2.0 7.0 0.00 0.00 0.00 99 1009.1
20260506032007 47 101 2.0 5.0 0.00 0.00 0.00 99 1009.1
20260506031507 47 131 0.0 2.0 0.00 0.00 0.00 99 1009.1
20260506031007 47 107 0.0 5.0 0.00 0.00 0.00 99 1009.1
20260506030507 47 99 0.0 5.0 0.00 0.00 0.00 99 1009.1
20260506030006 48 128 2.0 5.0 0.00 0.00 0.00 99 1009.1
20260506025507 48 98 2.0 5.0 0.00 0.00 0.00 99 1009.1
20260506024507 48 110 0.0 5.0 0.00 0.00 0.00 99 1009.1
20260506024008 48 103 0.0 0.0 0.00 0.00 0.00 98 1009.1
20260506023508 47 113 0.0 0.0 0.00 0.00 0.00 98 1009.1
20260506022506 47 131 0.0 0.0 0.00 0.00 0.00 98 1009.1
20260506022008 47 106 0.0 0.0 0.00 0.00 0.00 98 1009.1
20260506021007 47 139 0.0 0.0 0.00 0.00 0.00 97 1009.1
20260506020507 47 144 0.0 0.0 0.00 0.00 0.00 97 1009.1
20260506020006 47 98 0.0 0.0 0.00 0.00 0.00 97 1009.1
20260506015507 47 81 0.0 0.0 0.00 0.00 0.00 97 1009.1
20260506015007 47 39 0.0 2.0 0.00 0.00 0.00 97 1009.1
20260506014507 47 282 0.0 5.0 0.00 0.00 0.00 96 1009.1
20260506014008 47 271 2.0 5.0 0.00 0.00 0.00 96 1009.1
20260506013007 48 266 5.0 5.0 0.00 0.00 0.00 96 1009.1
20260506012506 47 227 3.0 5.0 0.00 0.00 0.00 96 1009.1
20260506012007 47 233 5.0 5.0 0.00 0.00 0.00 96 1009.1
20260506011507 47 257 5.0 5.0 0.00 0.00 0.00 96 1009.1
20260506011007 47 237 5.0 5.0 0.00 0.00 0.00 96 1009.1
20260506010507 47 234 3.0 5.0 0.00 0.00 0.00 95 1009.1
20260506005007 47 233 5.0 5.0 0.00 0.00 0.00 95 1009.1
20260506004506 47 234 2.0 5.0 0.00 0.00 0.00 95 1008.6
20260506004007 47 227 5.0 7.0 0.00 0.00 0.00 94 1008.1
20260506003506 47 242 5.0 7.0 0.00 0.00 0.00 94 1008.1
20260506003007 47 240 5.0 7.0 0.00 0.00 0.00 94 1009.1